Previsão horária em Kabaevo

Hoje, 14 Junho, Segunda-feira

Tempo Temperatura Precipitação Vento Pressão Humidade
00:00 +16°C° 0.3 mm 2 m/s 743 mmHg 95%
01:00 +16°C° 0 mm 2 m/s 743 mmHg 95%
02:00 +16°C° 0 mm 2 m/s 743 mmHg 95%
03:00 +16°C° 0 mm 1 m/s 743 mmHg 94%
04:00 +18°C° 0 mm 1 m/s 743 mmHg 93%
05:00 +19°C° 0 mm 1 m/s 744 mmHg 91%
06:00 +20°C° 0 mm 1 m/s 744 mmHg 90%
07:00 +21°C° 0.2 mm 1 m/s 744 mmHg 86%
08:00 +22°C° 0.2 mm 1 m/s 744 mmHg 83%
09:00 +23°C° 0.2 mm 1 m/s 744 mmHg 79%
10:00 +23°C° 0.4 mm 1 m/s 745 mmHg 75%
11:00 +24°C° 0.4 mm 1 m/s 745 mmHg 71%
12:00 +25°C° 0.4 mm 1 m/s 745 mmHg 67%
13:00 +25°C° 0.6 mm 2 m/s 745 mmHg 68%
14:00 +25°C° 0.6 mm 2 m/s 745 mmHg 69%
15:00 +24°C° 0.6 mm 3 m/s 745 mmHg 69%
16:00 +24°C° 0 mm 2 m/s 745 mmHg 73%
17:00 +24°C° 0 mm 2 m/s 744 mmHg 76%
18:00 +23°C° 0 mm 2 m/s 744 mmHg 79%
19:00 +22°C° 0 mm 1 m/s 744 mmHg 83%
20:00 +20°C° 0 mm 1 m/s 744 mmHg 87%
21:00 +19°C° 0 mm 1 m/s 744 mmHg 92%
22:00 +18°C° 0.2 mm 1 m/s 744 mmHg 92%
23:00 +16°C° 0.2 mm 1 m/s 744 mmHg 92%

Amanhã, 15 Junho, Terça-feira

Tempo Temperatura Precipitação Vento Pressão Humidade
00:00 +16°C° 0.2 mm 1 m/s 744 mmHg 93%
01:00 +16°C° 0 mm 1 m/s 744 mmHg 93%
02:00 +15°C° 0 mm 1 m/s 744 mmHg 92%
03:00 +15°C° 0 mm 1 m/s 744 mmHg 92%
04:00 +16°C° 0 mm 1 m/s 744 mmHg 90%
05:00 +18°C° 0 mm 1 m/s 744 mmHg 88%
06:00 +17°C° 0 mm 0 m/s 744 mmHg 86%
07:00 +20°C° 0 mm 1 m/s 744 mmHg 82%
08:00 +21°C° 0 mm 1 m/s 744 mmHg 78%
09:00 +23°C° 0 mm 2 m/s 744 mmHg 74%
10:00 +23°C° 0 mm 2 m/s 744 mmHg 73%
11:00 +23°C° 0 mm 2 m/s 744 mmHg 71%
12:00 +24°C° 0 mm 2 m/s 744 mmHg 69%
13:00 +24°C° 0 mm 3 m/s 743 mmHg 69%
14:00 +25°C° 0 mm 3 m/s 743 mmHg 68%
15:00 +25°C° 0 mm 3 m/s 743 mmHg 68%
16:00 +25°C° 0.3 mm 3 m/s 742 mmHg 72%
17:00 +24°C° 0.3 mm 3 m/s 742 mmHg 77%
18:00 +24°C° 0.3 mm 3 m/s 742 mmHg 81%
19:00 +22°C° 0.1 mm 3 m/s 741 mmHg 84%
20:00 +21°C° 0.1 mm 3 m/s 741 mmHg 87%
21:00 +19°C° 0.1 mm 3 m/s 741 mmHg 89%
22:00 +19°C° 0.1 mm 3 m/s 740 mmHg 90%
23:00 +18°C° 0.1 mm 2 m/s 740 mmHg 91%

Depois de amanhã, 16 Junho, Quarta-feira

Tempo Temperatura Precipitação Vento Pressão Humidade
00:00 +17°C° 0.1 mm 2 m/s 739 mmHg 92%
01:00 +17°C° 0 mm 2 m/s 739 mmHg 93%
02:00 +17°C° 0 mm 2 m/s 739 mmHg 93%
03:00 +16°C° 0 mm 1 m/s 739 mmHg 94%
04:00 +18°C° 0 mm 1 m/s 739 mmHg 92%
05:00 +19°C° 0 mm 1 m/s 739 mmHg 90%
06:00 +20°C° 0 mm 1 m/s 738 mmHg 89%
07:00 +21°C° 0 mm 1 m/s 738 mmHg 83%
08:00 +23°C° 0 mm 1 m/s 738 mmHg 78%
09:00 +24°C° 0 mm 1 m/s 738 mmHg 73%
10:00 +25°C° 0 mm 1 m/s 738 mmHg 70%
11:00 +26°C° 0 mm 1 m/s 738 mmHg 67%
12:00 +27°C° 0 mm 2 m/s 738 mmHg 64%
13:00 +27°C° 0.2 mm 3 m/s 739 mmHg 65%
14:00 +27°C° 0.2 mm 3 m/s 739 mmHg 66%
15:00 +27°C° 0.2 mm 4 m/s 739 mmHg 67%
16:00 +26°C° 1.1 mm 5 m/s 739 mmHg 73%
17:00 +25°C° 1.1 mm 5 m/s 739 mmHg 78%
18:00 +22°C° 1.1 mm 6 m/s 739 mmHg 84%
19:00 +21°C° 0.1 mm 5 m/s 740 mmHg 87%
20:00 +20°C° 0.1 mm 5 m/s 741 mmHg 91%
21:00 +17°C° 0.1 mm 5 m/s 742 mmHg 94%
22:00 +17°C° 0 mm 5 m/s 742 mmHg 94%
23:00 +16°C° 0 mm 5 m/s 743 mmHg 93%

17 Junho, Quinta-feira

Tempo Temperatura Precipitação Vento Pressão Humidade
00:00 +15°C° 0 mm 5 m/s 743 mmHg 93%
01:00 +14°C° 0 mm 4 m/s 744 mmHg 94%
02:00 +13°C° 0 mm 3 m/s 744 mmHg 94%
03:00 +13°C° 0 mm 2 m/s 745 mmHg 94%
04:00 +14°C° 0 mm 2 m/s 745 mmHg 92%
05:00 +14°C° 0 mm 2 m/s 746 mmHg 90%
06:00 +14°C° 0 mm 3 m/s 746 mmHg 87%
07:00 +16°C° 0 mm 3 m/s 746 mmHg 79%
08:00 +18°C° 0 mm 4 m/s 747 mmHg 70%
09:00 +19°C° 0 mm 5 m/s 747 mmHg 62%
10:00 +19°C° 0 mm 5 m/s 747 mmHg 59%
11:00 +20°C° 0 mm 5 m/s 747 mmHg 55%
12:00 +20°C° 0 mm 6 m/s 748 mmHg 52%
13:00 +21°C° 0 mm 6 m/s 748 mmHg 53%
14:00 +21°C° 0 mm 6 m/s 748 mmHg 55%
15:00 +21°C° 0 mm 5 m/s 748 mmHg 56%
16:00 +20°C° 0 mm 5 m/s 748 mmHg 60%
17:00 +19°C° 0 mm 5 m/s 748 mmHg 63%
18:00 +19°C° 0 mm 4 m/s 749 mmHg 67%
19:00 +17°C° 0 mm 4 m/s 749 mmHg 72%
20:00 +16°C° 0 mm 3 m/s 749 mmHg 77%
21:00 +14°C° 0 mm 2 m/s 749 mmHg 81%
22:00 +13°C° 0 mm 2 m/s 749 mmHg 82%
23:00 +13°C° 0 mm 2 m/s 750 mmHg 83%

18 Junho, Sexta-feira

Tempo Temperatura Precipitação Vento Pressão Humidade
00:00 +12°C° 0 mm 1 m/s 750 mmHg 84%
01:00 +12°C° 0 mm 2 m/s 750 mmHg 84%
02:00 +10°C° 0 mm 2 m/s 750 mmHg 83%
03:00 +10°C° 0 mm 2 m/s 751 mmHg 82%
04:00 +12°C° 0 mm 2 m/s 751 mmHg 80%
05:00 +13°C° 0 mm 2 m/s 751 mmHg 78%
06:00 +14°C° 0 mm 2 m/s 752 mmHg 76%
07:00 +16°C° 0 mm 2 m/s 752 mmHg 71%
08:00 +17°C° 0 mm 3 m/s 752 mmHg 66%
09:00 +19°C° 0 mm 4 m/s 752 mmHg 61%
10:00 +20°C° 0 mm 4 m/s 753 mmHg 58%
11:00 +20°C° 0 mm 4 m/s 753 mmHg 55%
12:00 +21°C° 0 mm 4 m/s 753 mmHg 51%
13:00 +21°C° 0 mm 4 m/s 753 mmHg 52%
14:00 +21°C° 0 mm 4 m/s 753 mmHg 52%
15:00 +22°C° 0 mm 4 m/s 753 mmHg 53%
16:00 +21°C° 0 mm 3 m/s 753 mmHg 58%
17:00 +21°C° 0 mm 3 m/s 753 mmHg 64%
18:00 +20°C° 0 mm 2 m/s 753 mmHg 69%
19:00 +19°C° 0 mm 2 m/s 753 mmHg 72%
20:00 +18°C° 0 mm 1 m/s 753 mmHg 75%
21:00 +15°C° 0 mm 0 m/s 753 mmHg 78%
22:00 +15°C° 0 mm 1 m/s 753 mmHg 80%
23:00 +15°C° 0 mm 1 m/s 753 mmHg 81%

19 Junho, Sábado

Tempo Temperatura Precipitação Vento Pressão Humidade
00:00 +14°C° 0 mm 1 m/s 753 mmHg 83%
01:00 +14°C° 0 mm 2 m/s 753 mmHg 84%
02:00 +14°C° 0 mm 2 m/s 753 mmHg 86%
03:00 +13°C° 0 mm 2 m/s 753 mmHg 87%
04:00 +14°C° 0 mm 2 m/s 753 mmHg 85%
05:00 +14°C° 0 mm 3 m/s 754 mmHg 83%
06:00 +16°C° 0 mm 3 m/s 754 mmHg 81%
07:00 +18°C° 0 mm 4 m/s 753 mmHg 78%
08:00 +20°C° 0 mm 4 m/s 753 mmHg 75%
09:00 +22°C° 0 mm 5 m/s 753 mmHg 73%
10:00 +23°C° 0 mm 5 m/s 753 mmHg 70%
11:00 +25°C° 0 mm 5 m/s 752 mmHg 67%
12:00 +26°C° 0 mm 6 m/s 752 mmHg 64%
13:00 +26°C° 0 mm 6 m/s 752 mmHg 64%
14:00 +26°C° 0 mm 6 m/s 752 mmHg 65%
15:00 +26°C° 0 mm 6 m/s 751 mmHg 65%
16:00 +26°C° 0 mm 5 m/s 751 mmHg 68%
17:00 +25°C° 0 mm 5 m/s 751 mmHg 71%
18:00 +25°C° 0 mm 5 m/s 750 mmHg 74%
19:00 +22°C° 0 mm 4 m/s 750 mmHg 79%
20:00 +21°C° 0 mm 4 m/s 750 mmHg 84%
21:00 +20°C° 0 mm 3 m/s 750 mmHg 89%
22:00 +19°C° 0 mm 3 m/s 750 mmHg 90%
23:00 +19°C° 0 mm 3 m/s 750 mmHg 92%
Mostrar mais

Necessitamos do seu Consentimento

A Meteoprog e os seus Fornecedores de Serviços podem armazenar e aceder a dados pessoais como cookies, identificadores do dispositivo ou outras tecnologias semelhantes existentes no seu dispositivo e processar estes dados para personalizar conteúdos e anúncios, assim como funcionalidades nas redes sociais e análise de tráfego.

  • Armazenar e/ou aceder a informações no seu dispositivo

    Os cookies, identificadores do dispositivo ou outras informações podem ser armazenados ou acedidos no seu dispositivo, para os fins acima indicados.

  • Anúncios e conteúdos personalizados, medição de anúncios e conteúdos, dados sobre o público-alvo e desenvolvimento de produtos

    Os anúncios e os conteúdos podem ser personalizados com base num perfil. Podem ser adicionados dados adicionais para uma maior personalização dos anúncios e dos conteúdos. A eficácia dos anúncios e dos conteúdos pode ser medida. Podem ser obtidas informações sobre o público que visualizou os anúncios e os conteúdos. Estes dados podem ser usados para desenvolver ou melhorar sistemas, softwares ou a experiência do utilizador.

Ao clicar em "Eu concordo”, permitirá o uso de cookies, identificadores do dispositivo e web beacons mencionados ou outras tecnologias semelhantes. As configurações do navegador do seu dispositivo podem ser alteradas.

Para certos fins, podem ser invocados interesses legítimos ao invés de consentimento. Pode ler mais informação sobre este assunto na nossa Política de Privacidade e Cookies.